Palermo, Italy

5:48 AM CET on December 15, 2018 (GMT +0100)
Punta Raisi

Weather History for LICJ - October, 2018

Change the Weather History Date:

Friday, October 12, 2018

  Actual Average Record
Temperature  
Mean Temperature 72 °F -  
Max Temperature 77 °F 71 °F 89 °F (2013)
Min Temperature 68 °F 62 °F 59 °F (2008)
Cooling Degree Days 8    
Growing Degree Days 22 (Base 50)    
Moisture  
Dew Point 64 °F    
Average Humidity 77    
Maximum Humidity 94    
Minimum Humidity 56    
Precipitation  
Precipitation 0.31 in 0.13 in - ()
Sea Level Pressure  
Sea Level Pressure 30.10 in    
Wind  
Wind Speed 6 mph ()    
Max Wind Speed 18 mph    
Max Gust Speed -    
Visibility 6.7 miles    
Events Rain , Thunderstorm    
Averages and records for this station are not official NWS values.
T = Trace of Precipitation, MM = Missing Value Source: Averaged Metar Reports

Daily Weather History Graph

Daily Weather History Graph

Search for Another Location

Airport or City:

Astronomy

Oct. 12, 2018 Rise Set
Actual Time 7:13 AM CEST 6:34 PM CEST
Civil Twilight 6:46 AM CEST 7:00 PM CEST
Nautical Twilight 6:16 AM CEST 7:31 PM CEST
Astronomical Twilight 5:45 AM CEST 8:01 PM CEST
Moon 10:27 AM CEST (10/12) 9:01 PM CEST (10/12)
Length of Visible Light 12h 14m
Length of Day
11h 21m
Waxing Crescent, 12% of the Moon is Illuminated
Oct 12
Waxing Crescent
Oct 16
First Quarter
Oct 24
Full
Oct 31
Last Quarter
Nov 7
New

Hourly Weather History & Observations

Time (CEST) Temp. Dew Point Humidity Pressure Visibility Wind Dir Wind Speed Gust Speed Precip Events Conditions
12:20 AM 71.6 °F 64.4 °F 78% 30.09 in - SSW 6.9 mph - N/A   Clear
1:20 AM 71.6 °F 62.6 °F 73% 30.09 in - South 6.9 mph - N/A   Clear
1:50 AM 73.4 °F 60.8 °F 65% 30.09 in - SSW 6.9 mph - N/A   Clear
2:00 AM 72 °F 62 °F 62% 30.10 in - SSW 4.6 mph - -  
2:20 AM 71.6 °F 60.8 °F 69% 30.09 in 6.2 mi SSW 4.6 mph - N/A   Partly Cloudy
2:50 AM 71.6 °F 60.8 °F 69% 30.09 in 6.2 mi Variable 2.3 mph - N/A   Partly Cloudy
3:20 AM 69.8 °F 64.4 °F 83% 30.09 in - Variable 2.3 mph - N/A   Clear
3:50 AM 71.6 °F 64.4 °F 78% 30.09 in - Variable 2.3 mph - N/A   Clear
4:20 AM 71.6 °F 64.4 °F 78% 30.06 in - SW 3.5 mph - N/A   Clear
4:50 AM 71.6 °F 62.6 °F 73% 30.06 in - Variable 1.2 mph - N/A   Clear
5:00 AM 71 °F 61 °F 64% 30.09 in - South 3.5 mph - -  
5:20 AM 69.8 °F 64.4 °F 83% 30.06 in - SSE 3.5 mph - N/A   Clear
5:50 AM 71.6 °F 66.2 °F 83% 30.09 in - ENE 9.2 mph - N/A   Clear
6:20 AM 69.8 °F 66.2 °F 88% 30.09 in 6.2 mi East 11.5 mph - N/A   Scattered Clouds
6:50 AM 69.8 °F 64.4 °F 83% 30.09 in 6.2 mi East 17.3 mph - N/A   Partly Cloudy
7:20 AM 68.0 °F 64.4 °F 88% 30.09 in 6.2 mi ENE 18.4 mph - N/A   Scattered Clouds
7:50 AM 68.0 °F 64.4 °F 88% 30.09 in 6.2 mi ENE 17.3 mph - N/A Rain , Thunderstorm Light Thunderstorms and Rain
8:00 AM 68 °F 65 °F 85% 30.12 in 19 mi ENE 15.0 mph - -  
8:20 AM 68.0 °F 64.4 °F 88% 30.09 in 6.2 mi ENE 13.8 mph - N/A Rain , Thunderstorm Light Thunderstorms and Rain
8:50 AM 68.0 °F 64.4 °F 88% 30.12 in 4.3 mi East 5.8 mph - N/A Rain , Thunderstorm Light Thunderstorms and Rain
9:20 AM 68.0 °F 66.2 °F 94% 30.12 in 4.3 mi NE 8.1 mph - N/A Rain , Thunderstorm Thunderstorms and Rain
9:50 AM 68.0 °F 64.4 °F 88% 30.12 in 4.3 mi ENE 8.1 mph - N/A Rain , Thunderstorm Thunderstorms and Rain
10:50 AM 69.8 °F 64.4 °F 83% 30.12 in 6.2 mi Variable 2.3 mph - N/A   Mostly Cloudy
11:20 AM 71.6 °F 64.4 °F 78% 30.12 in 6.2 mi SSE 5.8 mph - N/A   Scattered Clouds
11:50 AM 73.4 °F 62.6 °F 69% 30.12 in 6.2 mi SE 6.9 mph - N/A   Mostly Cloudy
12:20 PM 73.4 °F 64.4 °F 73% 30.12 in 6.2 mi SSE 6.9 mph - N/A   Mostly Cloudy
12:50 PM 73.4 °F 64.4 °F 73% 30.12 in 6.2 mi SSW 12.7 mph - N/A   Mostly Cloudy
1:20 PM 75.2 °F 64.4 °F 69% 30.12 in 6.2 mi South 8.1 mph - N/A   Mostly Cloudy
1:50 PM 75.2 °F 62.6 °F 65% 30.09 in 6.2 mi South 11.5 mph - N/A   Scattered Clouds
2:00 PM 75 °F 62 °F 56% 30.12 in 19 mi South 11.5 mph - -  
2:20 PM 77.0 °F 62.6 °F 61% 30.09 in 6.2 mi South 9.2 mph - N/A   Partly Cloudy
2:50 PM 77.0 °F 64.4 °F 65% 30.09 in 6.2 mi SSW 11.5 mph - N/A   Partly Cloudy
3:20 PM 75.2 °F 64.4 °F 69% 30.09 in 6.2 mi Variable 2.3 mph - N/A   Partly Cloudy
3:50 PM 75.2 °F 64.4 °F 69% 30.09 in 6.2 mi Variable 4.6 mph - N/A   Partly Cloudy
4:20 PM 75.2 °F 66.2 °F 73% 30.09 in 6.2 mi North 3.5 mph - N/A   Partly Cloudy
4:50 PM 75.2 °F 64.4 °F 69% 30.09 in 6.2 mi North 4.6 mph - N/A   Partly Cloudy
5:00 PM 74 °F 66 °F 70% 30.11 in - NNE 5.8 mph - -  
5:20 PM 73.4 °F 66.2 °F 78% 30.09 in 6.2 mi NNE 5.8 mph - N/A   Partly Cloudy
5:50 PM 73.4 °F 66.2 °F 78% 30.09 in 6.2 mi NE 4.6 mph - N/A   Scattered Clouds
6:50 PM 71.6 °F 64.4 °F 78% 30.09 in 5.6 mi East 5.8 mph - N/A   Scattered Clouds
7:20 PM 71.6 °F 64.4 °F 78% 30.09 in 5.6 mi ENE 5.8 mph - N/A Thunderstorm Thunderstorm
7:50 PM 71.6 °F 64.4 °F 78% 30.12 in 5.6 mi SE 5.8 mph - N/A Thunderstorm Thunderstorm
8:00 PM 72 °F 65 °F 74% 30.13 in - South 5.8 mph - -  
8:20 PM 71.6 °F 64.4 °F 78% 30.12 in 6.2 mi SSW 10.4 mph - N/A Thunderstorm Thunderstorm
8:50 PM 69.8 °F 64.4 °F 83% 30.12 in 6.2 mi SSW 12.7 mph - N/A Rain , Thunderstorm Thunderstorms and Rain
9:20 PM 69.8 °F 64.4 °F 83% 30.12 in 6.2 mi SSW 3.5 mph - N/A Rain Light Rain
9:50 PM 69.8 °F 66.2 °F 88% 30.12 in 6.2 mi SW 8.1 mph - N/A   Scattered Clouds
10:20 PM 69.8 °F 66.2 °F 88% 30.12 in 6.2 mi SW 5.8 mph - N/A   Scattered Clouds
10:50 PM 69.8 °F 66.2 °F 88% 30.12 in 6.2 mi South 3.5 mph - N/A   Scattered Clouds
11:00 PM 69 °F 66 °F 89% 30.14 in - South 1.2 mph - -  
11:20 PM 69.8 °F 66.2 °F 88% 30.12 in 6.2 mi SSE 2.3 mph - N/A   Scattered Clouds
11:50 PM 69.8 °F 66.2 °F 88% 30.12 in 6.2 mi SE 2.3 mph - N/A   Scattered Clouds